Content
SEND FEEDBACK

Daily
Averages
Monthly
Summary
Spain

MAHON, SPAIN


Home > Europe > Spain
Elevation: 269 feet     Latitude: 39 52N     Longitude: 004 14E

WEATHER
 
SELECT A DAY
Number of Records: 249,831;   Date Range: 7/1/96 - 7/23/14
 
SHARE

PRINT THIS DATA

[ ← Previous Day ]
WEATHER ALMANAC - APRIL 7, 2013
[ Next Day → ]
[ °C ]   °F
Weather ElementAverageHighLow
Temperature52.6 °F59 °F (2:00 pm)46.4 °F (12:30 am)
Dewpoint46.3 °F49 °F (2:00 pm)42.8 °F (12:30 am)
Humidity79.1 %100 % (5:00 am)60 % (2:00 pm)
Barometer29.96 in30.01 in (11:00 am)29.92 in (12:30 am)
Wind Speed11.1 mph20.7 mph (7:30 am)
Wind Gust34.5 mph (7:30 am)
Weather ElementAverage
Visibility5.2 mi
Wind DirectionW (273.4 °)

Weather ElementTotal
Precipitation---
Heating Degree Days12.3 (Base 65)
Growing Degree Days2.7 (Base 50)
Averaged from 44 records on April 7, 2013
WEATHER CONDITIONS BREAKOUT
WIND DIRECTION BREAKOUT
WEATHER BY HOUR - APRIL 7, 2013
[ °C ]   °F
Local TimeTemperatureDewpointHumidityBarometerVisibilityWind DirectionWind SpeedGust SpeedPrecipitationEventsConditions
12:30 AM46.4 °F42.8 °F87 %29.92 in6.2 miNW (310°)4.6 mphMostly Cloudy
2:00 AM47.0 °F44.0 °F87 %29.94 in9.0 miWNW (290°)11.5 mphScattered Clouds
2:00 AM46.4 °F44.6 °F93 %29.92 in6.2 miWNW (290°)10.4 mphMostly Cloudy
5:00 AM46.4 °F46.4 °F100 %29.92 in6.2 miWNW (300°)13.8 mph25.3 mphRainLight Rain
5:30 AM46.4 °F46.4 °F100 %29.92 in2.5 miNW (320°)17.3 mph29.9 mphRainLight Rain
6:00 AM48.2 °F46.4 °F93 %29.92 in2.5 miNW (320°)18.4 mphRainLight Rain
6:30 AM46.4 °F46.4 °F100 %29.92 in2.5 miNW (320°)13.8 mph27.6 mphRainLight Rain
7:00 AM48.2 °F44.6 °F87 %29.92 in3.1 miNNW (330°)18.4 mph32.2 mphRainLight Rain
7:30 AM48.2 °F44.6 °F87 %29.95 in3.1 miNNW (340°)20.7 mph34.5 mphRainLight Rain
8:00 AM47.0 °F45.0 °F90 %29.97 in4.0 miNNW (330°)18.4 mphRainLight Rain
8:00 AM48.2 °F44.6 °F87 %29.95 in3.7 miNNW (330°)17.3 mph31.1 mphRainLight Rain
8:30 AM48.2 °F44.6 °F87 %29.95 in3.7 miNNW (340°)16.1 mph28.8 mphLight Drizzle
9:00 AM50.0 °F46.4 °F87 %29.95 in3.7 miNNW (340°)17.3 mph29.9 mphScattered Clouds
9:30 AM51.8 °F46.4 °F82 %29.95 in4.3 miNNW (340°)17.3 mphPartly Cloudy
10:00 AM53.6 °F46.4 °F77 %29.98 in5.0 miNNW (330°)13.8 mph27.6 mphPartly Cloudy
10:30 AM53.6 °F46.4 °F77 %29.98 in4.3 miNNW (340°)18.4 mph32.2 mphScattered Clouds
11:00 AM53.6 °F46.4 °F77 %30.01 in4.3 miNNW (330°)16.1 mphScattered Clouds
11:30 AM53.6 °F46.4 °F77 %30.01 in4.3 miNNW (340°)12.7 mphMostly Cloudy
12:00 PM53.6 °F44.6 °F72 %30.01 in4.3 miNW (320°)9.2 mphMostly Cloudy
12:30 PM55.4 °F46.4 °F72 %30.01 in5.0 miNNW (330°)11.5 mphScattered Clouds
1:00 PM57.2 °F46.4 °F67 %30.01 in5.0 miNNW (330°)8.1 mphScattered Clouds
1:30 PM57.2 °F48.2 °F72 %29.98 in6.2 miNW (320°)8.1 mphScattered Clouds
2:00 PM57.2 °F46.4 °F67 %29.98 in6.2 miNW (310°)9.2 mphScattered Clouds
2:00 PM59.0 °F49.0 °F60 %29.99 in9.0 miNW (310°)8.1 mphPartly Cloudy
2:30 PM55.4 °F48.2 °F77 %29.98 in6.2 miWSW (250°)10.4 mphScattered Clouds
3:00 PM57.2 °F46.4 °F67 %29.98 in6.2 miWest (260°)11.5 mphScattered Clouds
3:30 PM59.0 °F48.2 °F67 %29.98 in6.2 miWSW (250°)11.5 mphScattered Clouds
4:00 PM59.0 °F48.2 °F67 %29.95 in6.2 miWSW (250°)8.1 mphPartly Cloudy
4:30 PM57.2 °F48.2 °F72 %29.95 in6.2 miWSW (240°)13.8 mphPartly Cloudy
5:00 PM57.2 °F48.2 °F72 %29.95 in6.2 miWSW (240°)10.4 mphPartly Cloudy
5:30 PM57.2 °F48.2 °F72 %29.95 in6.2 miSW (230°)9.2 mphPartly Cloudy
6:00 PM55.4 °F44.6 °F67 %29.95 in6.2 miWSW (250°)9.2 mphPartly Cloudy
6:30 PM55.4 °F46.4 °F72 %29.95 inWSW (240°)8.1 mphClear
7:00 PM55.4 °F44.6 °F67 %29.95 inWSW (250°)5.8 mphClear
7:30 PM53.6 °F46.4 °F77 %29.95 inWSW (240°)4.6 mphClear
8:00 PM53.0 °F47.0 °F72 %29.96 in9.0 miSW (230°)4.6 mphOvercast
8:00 PM53.6 °F46.4 °F77 %29.95 inSW (230°)4.6 mphClear
8:30 PM51.8 °F46.4 °F82 %29.95 inVariable2.3 mphClear
9:00 PM50.0 °F46.4 °F87 %29.95 inVariable1.2 mphClear
9:30 PM51.8 °F46.4 °F82 %29.95 inSSW (210°)3.5 mphClear
10:00 PM51.8 °F48.2 °F88 %29.95 inSSW (210°)4.6 mphClear
10:30 PM51.8 °F46.4 °F82 %29.95 inSW (230°)10.4 mphClear
11:00 PM53.6 °F46.4 °F77 %29.95 inSW (230°)11.5 mphClear
11:30 PM53.6 °F44.6 °F72 %29.92 inSW (230°)10.4 mphClear
Hourly data recorded from LEMH, located miles away from Mahon, Spain







STORIES FROM OUR PARTNERS